Weather History for Worland, WY

Change the Weather History Date:

Friday, November 22, 2013

  Actual Average Record
Temperature  
Mean Temperature 0 °F 27 °F  
Max Temperature 16 °F 40 °F 66 °F (2006)
Min Temperature -16 °F 14 °F -16 °F (2013)
Degree Days  
Heating Degree Days 65 38  
Month to date heating degree days 693 704  
Since 1 July heating degree days 1526 1566  
Cooling Degree Days 0 0  
Month to date cooling degree days 0 0  
Year to date cooling degree days 852 535  
Moisture  
Dew Point -5 °F    
Average Humidity 85    
Maximum Humidity 100    
Minimum Humidity 70    
Precipitation  
Precipitation T in 0.01 in 0.09 in (1996)
Month to date precipitation 0.12 0.27  
Year to date precipitation 7.74 7.26  
Sea Level Pressure  
Sea Level Pressure 30.85 in    
Wind  
Wind Speed 3 mph (South)    
Max Wind Speed 13 mph    
Max Gust Speed 13 mph    
Visibility 10 miles    
Events      
T = Trace of Precipitation, MM = Missing Value Source: NWS Daily Summary

Daily Weather History Graph

Daily Weather History Graph

Search for Another Location

Airport:

Trip Planner

Search our weather history database for the weather conditions in past years. The results will help you decide how hot, cold, wet, or windy it might be!

Date:

Astronomy

Nov. 22, 2013 Rise Set
Actual Time 7:16 AM MST 4:39 PM MST
Civil Twilight 6:44 AM MST 5:11 PM MST
Nautical Twilight 6:08 AM MST 5:46 PM MST
Astronomical Twilight 5:34 AM MST 6:21 PM MST
Moon 9:17 PM MST (11/22) 10:58 AM MST (11/22)
Length of Visible Light 10h 27m
Length of Day
9h 23m
Waning Gibbous, 77% of the Moon is Illuminated
Nov 22
Waning Gibbous
Nov 25
Last Quarter
Dec 2
New
Dec 9
First Quarter
Dec 17
Full

Hourly Weather History & Observations

Time (MST) Temp. Windchill Dew Point Humidity Pressure Visibility Wind Dir Wind Speed Gust Speed Precip Events Conditions
12:53 AM -9.9 °F -23.4 °F -14.1 °F 82% 30.81 in 10.0 mi South 5.8 mph - N/A   Clear
1:53 AM -11.9 °F -25.7 °F -14.1 °F 90% 30.80 in 10.0 mi SSW 5.8 mph - N/A   Clear
2:53 AM -9.9 °F -27.5 °F -13.0 °F 86% 30.80 in 10.0 mi SSW 9.2 mph - N/A   Clear
3:03 AM -9.0 °F -25.2 °F -11.9 °F 87% 30.51 in 10.0 mi SSW 8.1 mph - N/A   Scattered Clouds
3:53 AM -9.0 °F -18.2 °F -13.0 °F 83% 30.80 in 10.0 mi SSW 3.5 mph - N/A   Clear
4:53 AM -11.9 °F - -15.0 °F 86% 30.84 in 10.0 mi Calm Calm - N/A   Clear
5:53 AM -14.1 °F -26.3 °F -18.9 °F 79% 30.84 in 10.0 mi SW 4.6 mph - N/A   Clear
6:53 AM -9.9 °F -23.4 °F -15.0 °F 78% 30.87 in 10.0 mi SSW 5.8 mph - N/A   Clear
7:53 AM -7.1 °F -22.8 °F -11.0 °F 83% 30.87 in 10.0 mi South 8.1 mph - N/A   Clear
8:53 AM -0.9 °F - -4.0 °F 87% 30.88 in 10.0 mi Calm Calm - N/A   Clear
9:53 AM -0.0 °F - -0.9 °F 96% 30.91 in 10.0 mi Calm Calm - 0.00 in   Clear
10:53 AM 6.1 °F - 1.0 °F 80% 30.87 in 10.0 mi Calm Calm - N/A   Clear
11:53 AM 9.0 °F 0.6 °F 3.9 °F 80% 30.85 in 10.0 mi West 4.6 mph - N/A   Clear
12:53 PM 12.0 °F - 5.0 °F 73% 30.84 in 10.0 mi Calm Calm - N/A   Clear
1:53 PM 14.0 °F 8.2 °F 6.1 °F 71% 30.85 in 10.0 mi ENE 3.5 mph - N/A   Clear
3:53 PM 14.0 °F 8.2 °F 7.0 °F 74% 30.86 in 10.0 mi ENE 3.5 mph - N/A   Unknown
4:53 PM 8.1 °F - 5.0 °F 87% 30.89 in 10.0 mi Calm Calm - N/A   Clear
5:53 PM 1.9 °F - -0.9 °F 88% 30.94 in 10.0 mi Calm Calm - N/A   Clear
6:53 PM 1.0 °F - -0.9 °F 91% 30.94 in 10.0 mi Calm Calm - N/A   Clear
7:53 PM -0.0 °F - -2.9 °F 88% 30.93 in 10.0 mi Calm Calm - N/A   Clear
8:53 PM 1.0 °F -6.7 °F -2.0 °F 87% 30.91 in 10.0 mi NE 3.5 mph - N/A   Clear
9:53 PM -2.9 °F - -5.1 °F 90% 30.91 in 10.0 mi Calm Calm - N/A   Clear
10:53 PM -4.0 °F - -7.1 °F 87% 30.89 in 10.0 mi Calm Calm - N/A   Clear
11:53 PM -0.9 °F -15.3 °F -5.1 °F 83% 30.88 in 10.0 mi South 8.1 mph - N/A   Clear